Tracking 29892 objects as of 21-Nov-2024
HD Live streaming from Space Station
objects crossing your sky now

STARLINK-11181

Track STARLINK-11181 now!
10-day predictions
STARLINK-11181 is classified as:


NORAD ID: 60059
Int'l Code: 2024-113A
Perigee: 366.2 km
Apogee: 367.5 km
Inclination: 53.2 °
Period: 91.7 minutes
Semi major axis: 6737 km
RCS: Unknown
Launch date: June 19, 2024
Source: United States (US)
Launch site: AIR FORCE WESTERN TEST RANGE (AFWTR)
Your satellite tracking list
Your tracking list is empty




NASA's NSSDC Master Catalog

Two Line Element Set (TLE):
1 60059U 24113A   24325.50738462  .00002897  00000-0  28764-4 0  9999
2 60059  53.1565   8.8956 0000970  89.0734 271.0395 15.69709202 25500
Source of the keplerian elements: AFSPC